Weather History for KGUP - October, 2012

Change the Weather History Date:

Tuesday, October 9, 2012

  Actual Average Record
Temperature  
Mean Temperature 54 °F -  
Max Temperature 73 °F 69 °F 82 °F (1996)
Min Temperature 34 °F 31 °F 16 °F (1982)
Degree Days  
Heating Degree Days 12    
Growing Degree Days 4 (Base 50)    
Moisture  
Dew Point 24 °F    
Average Humidity 33    
Maximum Humidity 55    
Minimum Humidity 18    
Precipitation  
Precipitation 0.00 in - - ()
Sea Level Pressure  
Sea Level Pressure 29.91 in    
Wind  
Wind Speed 5 mph (SW)    
Max Wind Speed 15 mph    
Max Gust Speed 24 mph    
Visibility 10 miles    
Events      
Averages and records for this station are not official NWS values.
T = Trace of Precipitation, MM = Missing Value Source: NWS Daily Summary

Daily Weather History Graph

Daily Weather History Graph

Search for Another Location

Airport or City:

Trip Planner

Search our weather history database for the weather conditions in past years. The results will help you decide how hot, cold, wet, or windy it might be!

Date:

Astronomy

Oct. 09, 2012 Rise Set
Actual Time 7:16 AM MDT 6:46 PM MDT
Civil Twilight 6:51 AM MDT 7:12 PM MDT
Nautical Twilight 6:21 AM MDT 7:41 PM MDT
Astronomical Twilight 5:52 AM MDT 8:11 PM MDT
Moon 1:08 AM MDT (10/9) 3:05 PM MDT (10/9)
Length of Visible Light 12h 21m
Length of Day
11h 30m
Last Quarter, 36% of the Moon is Illuminated
Oct 9
Last Quarter
Oct 15
New
Oct 21
First Quarter
Oct 29
Full
Nov 6
Last Quarter

Hourly Weather History & Observations

Time (MDT) Temp. Windchill Dew Point Humidity Pressure Visibility Wind Dir Wind Speed Gust Speed Precip Events Conditions
12:53 AM 41.0 °F 37.1 °F 17.1 °F 38% 29.89 in 10.0 mi ENE 5.8 mph - N/A   Clear
2:53 AM 39.9 °F 36.7 °F 19.0 °F 43% 29.88 in 10.0 mi East 4.6 mph - N/A   Clear
3:53 AM 39.0 °F - 19.9 °F 46% 29.88 in 10.0 mi Calm Calm - N/A   Clear
4:53 AM 37.9 °F 35.5 °F 21.0 °F 51% 29.90 in 10.0 mi ENE 3.5 mph - N/A   Clear
5:53 AM 37.9 °F 35.5 °F 19.9 °F 48% 29.91 in 10.0 mi NE 3.5 mph - N/A   Clear
6:53 AM 34.0 °F - 16.0 °F 48% 29.98 in 10.0 mi Calm Calm - N/A   Clear
7:53 AM 37.9 °F - 23.0 °F 55% 30.01 in 10.0 mi Calm Calm - N/A   Clear
8:53 AM 50.0 °F - 28.9 °F 44% 29.98 in 10.0 mi Calm Calm - N/A   Clear
9:53 AM 57.9 °F - 33.1 °F 39% 29.96 in 10.0 mi Calm Calm - N/A   Clear
10:53 AM 63.0 °F - 33.1 °F 33% 29.95 in 10.0 mi West 5.8 mph - N/A   Clear
11:53 AM 66.9 °F - 30.9 °F 26% 29.93 in 10.0 mi SW 8.1 mph 17.3 mph N/A   Clear
12:53 PM 70.0 °F - 26.1 °F 19% 29.88 in 10.0 mi West 10.4 mph - N/A   Clear
1:53 PM 72.0 °F - 27.0 °F 19% 29.85 in 10.0 mi South 11.5 mph 24.2 mph N/A   Clear
2:53 PM 73.0 °F - 28.0 °F 19% 29.83 in 10.0 mi West 15.0 mph 23.0 mph N/A   Clear
3:53 PM 72.0 °F - 28.0 °F 20% 29.83 in 10.0 mi WSW 9.2 mph 18.4 mph N/A   Clear
4:53 PM 73.0 °F - 27.0 °F 18% 29.83 in 10.0 mi WSW 11.5 mph 17.3 mph N/A   Clear
5:53 PM 70.0 °F - 26.1 °F 19% 29.86 in 10.0 mi SW 11.5 mph - N/A   Clear
6:53 PM 66.0 °F - 25.0 °F 21% 29.92 in 10.0 mi SW 9.2 mph - N/A   Clear
7:53 PM 60.1 °F - 23.0 °F 24% 29.96 in 10.0 mi SSW 6.9 mph - N/A   Clear
8:53 PM 55.0 °F - 21.9 °F 28% 29.92 in 10.0 mi Calm Calm - N/A   Clear
9:53 PM 51.1 °F - 21.0 °F 31% 29.91 in 10.0 mi Calm Calm - N/A   Clear
10:53 PM 46.9 °F - 19.9 °F 34% 29.92 in 10.0 mi Calm Calm - N/A   Clear
11:53 PM 42.1 °F 40.2 °F 17.1 °F 37% 29.93 in 10.0 mi ENE 3.5 mph - N/A   Clear